"startDT [UTC]","vpos","CH4 [ppm]","stdev(CH4) [ppm]","CO2 [ppm]","stdev(CO2) [ppm]","H2O [ppm]","stdev(H2O)","p_LGR [torr]","T_LGR [C]","mt1_LGR [us]","mt2_LGR [us]","T_ECpre [C]","T_EC1 [C]","T_EC2 [C]","p_inlet [hPa]","p_in [hPa]","p_out [hPa]","T_inlet [C]","RH_inlet [%]","dwpt_inlet [C]","T_vent [C]","RH_vent [%]","dwpt_vent [C]","flow_vent [l min-1]","flow_inlet [l min-1]","dwpt_sample [C]","T_room [C]"
2012-07-16 00:00:00,0.0,1.8779,0.0010,387.91,0.32,1.9,9.0,138.12,27.63,24.62,36.37,0.95,-8.05,-26.81,-51,547,-925,19.2,32.6,2.3,19.6,2.1,-30.8,5.73,2.37,-30.4,26.2
2012-07-16 00:01:00,0.0,1.8778,0.0012,388.21,0.29,1.5,8.8,138.12,27.64,24.63,36.37,0.95,-9.39,-26.81,-51,547,-925,19.2,32.5,2.3,19.6,2.1,-30.8,5.73,2.36,-30.3,26.2
2012-07-16 00:02:00,0.0,1.8782,0.0009,388.34,0.32,0.3,7.5,138.12,27.65,24.62,36.38,1.02,-10.63,-26.80,-51,547,-925,19.2,32.4,2.3,19.6,2.0,-30.8,5.73,2.37,-30.4,26.2
2012-07-16 00:03:00,0.0,1.8784,0.0010,388.03,0.34,2.1,8.3,138.12,27.66,24.62,36.37,1.05,-11.79,-26.79,-51,547,-925,19.2,32.8,2.5,19.6,2.1,-30.8,5.73,2.39,-30.4,26.2
2012-07-16 00:04:00,0.0,1.8780,0.0009,388.38,0.33,1.1,7.0,138.12,27.66,24.63,36.37,0.97,-12.87,-26.79,-51,547,-925,19.2,32.4,2.3,19.6,2.1,-30.8,5.73,2.38,-30.3,26.2
2012-07-16 00:05:00,0.0,1.8793,0.0009,388.30,0.29,1.8,12.7,138.12,27.67,24.62,36.37,0.94,-13.84,-26.78,-51,547,-925,19.2,32.3,2.3,19.6,2.0,-30.8,5.73,2.35,-30.3,26.2
2012-07-16 00:06:00,0.0,1.8789,0.0009,388.60,0.38,-0.4,3.1,138.12,27.68,24.62,36.37,1.00,-14.76,-26.77,-51,547,-925,19.2,31.4,1.9,19.7,2.0,-30.9,5.73,2.36,-30.3,26.2
2012-07-16 00:07:00,0.0,1.8788,0.0010,388.65,0.35,1.2,10.0,138.12,27.69,24.62,36.37,1.04,-15.61,-26.78,-51,547,-925,19.3,31.4,1.9,19.7,2.0,-30.9,5.73,2.38,-30.3,26.2
2012-07-16 00:08:00,0.0,1.8790,0.0009,388.84,0.35,1.2,6.6,138.11,27.69,24.62,36.37,0.98,-16.43,-26.78,-51,547,-925,19.3,31.3,1.9,19.7,2.0,-30.9,5.73,2.39,-30.3,26.2
2012-07-16 00:09:00,0.0,1.8793,0.0009,388.51,0.30,1.3,8.5,138.11,27.70,24.62,36.37,0.93,-17.20,-26.78,-51,547,-925,19.3,31.7,2.0,19.7,2.0,-30.9,5.73,2.36,-30.3,26.3
2012-07-16 00:10:00,0.0,1.8797,0.0009,388.29,0.30,3.1,12.1,138.12,27.71,24.62,36.38,0.97,-17.92,-26.79,-51,547,-925,19.3,31.9,2.1,19.7,2.0,-30.9,5.73,2.36,-30.3,26.2
2012-07-16 00:11:00,0.0,1.8800,0.0011,388.37,0.30,1.9,7.8,138.11,27.72,24.62,36.37,1.04,-18.61,-26.78,-51,548,-925,19.3,31.7,2.1,19.7,2.0,-30.9,5.73,2.38,-30.3,26.3
2012-07-16 00:12:00,0.0,1.8799,0.0011,388.24,0.27,1.3,6.7,138.11,27.73,24.63,36.38,1.02,-19.28,-26.78,-51,548,-925,19.3,31.8,2.1,19.7,2.0,-30.9,5.73,2.38,-30.3,26.2
2012-07-16 00:13:00,0.0,1.8801,0.0011,387.76,0.29,2.2,10.1,138.11,27.74,24.62,36.38,0.94,-19.89,-26.79,-51,548,-925,19.4,32.3,2.4,19.7,2.0,-30.9,5.73,2.36,-30.3,26.3
2012-07-16 00:14:00,0.0,1.8801,0.0010,388.28,0.35,3.5,12.8,138.11,27.75,24.62,36.37,0.94,-20.49,-26.80,-51,548,-925,19.4,32.0,2.3,19.7,2.0,-30.9,5.73,2.35,-30.2,26.3
2012-07-16 00:15:00,0.0,1.8800,0.0009,388.02,0.30,2.6,11.2,138.11,27.76,24.63,36.38,0.99,-21.06,-26.80,-51,548,-925,19.4,31.9,2.2,19.7,2.0,-30.8,5.73,2.38,-30.3,26.3
2012-07-16 00:16:00,0.0,1.8802,0.0009,388.49,0.28,2.8,10.4,138.11,27.77,24.62,36.36,1.02,-21.61,-26.81,-51,548,-925,19.4,31.5,2.1,19.7,2.0,-31.0,5.73,2.38,-30.2,26.3
2012-07-16 00:17:00,0.0,1.8802,0.0011,388.35,0.33,3.2,9.7,138.11,27.78,24.62,36.37,1.01,-22.11,-26.82,-51,548,-925,19.4,31.8,2.2,19.7,2.0,-31.0,5.73,2.36,-30.2,26.3
2012-07-16 00:18:00,0.0,1.8803,0.0009,388.10,0.28,2.5,11.8,138.11,27.79,24.63,36.37,0.93,-22.58,-26.82,-51,548,-925,19.4,32.2,2.3,19.7,2.0,-31.0,5.73,2.35,-30.2,26.3
2012-07-16 00:19:00,0.0,1.8811,0.0008,387.69,0.38,2.9,11.1,138.11,27.80,24.62,36.37,0.95,-23.03,-26.82,-51,548,-925,19.4,32.8,2.6,19.7,2.0,-31.0,5.73,2.37,-30.2,26.3
2012-07-16 00:20:00,0.0,1.8807,0.0011,387.52,0.48,2.6,11.6,138.11,27.81,24.63,36.38,0.98,-23.45,-26.84,-51,548,-925,19.4,32.5,2.5,19.8,2.0,-31.0,5.73,2.38,-30.2,26.3
2012-07-16 00:21:00,0.0,1.8807,0.0010,388.63,0.29,5.1,14.2,138.11,27.82,24.63,36.37,1.03,-23.85,-26.84,-52,548,-925,19.4,30.8,1.8,19.8,2.0,-31.0,5.73,2.36,-30.1,26.4
2012-07-16 00:22:00,0.0,1.8814,0.0009,388.95,0.32,1.8,8.6,138.11,27.83,24.62,36.36,1.02,-24.23,-26.85,-51,548,-925,19.5,29.9,1.4,19.8,2.0,-30.9,5.73,2.35,-30.1,26.4
2012-07-16 00:23:00,0.0,1.8806,0.0009,388.98,0.30,2.8,9.3,138.11,27.84,24.63,36.37,0.95,-24.58,-26.85,-51,548,-925,19.5,30.0,1.4,19.8,2.0,-31.0,5.73,2.37,-30.1,26.4
2012-07-16 00:24:00,0.0,1.8816,0.0011,388.44,0.39,2.4,10.5,138.11,27.85,24.63,36.36,0.93,-24.92,-26.85,-51,548,-925,19.5,30.9,1.9,19.8,2.0,-30.9,5.73,2.38,-30.1,26.4
2012-07-16 00:25:00,0.0,1.8819,0.0012,388.12,0.31,6.8,18.5,138.11,27.86,24.63,36.37,0.98,-25.24,-26.86,-52,548,-925,19.5,31.5,2.2,19.8,2.0,-31.0,5.73,2.35,-30.1,26.4
2012-07-16 00:26:00,0.0,1.8820,0.0010,388.26,0.28,2.0,8.2,138.11,27.86,24.62,36.37,1.02,-25.54,-26.87,-51,549,-925,19.5,31.2,2.0,19.9,2.0,-30.9,5.73,2.35,-30.1,26.4
2012-07-16 00:27:00,0.0,1.8817,0.0011,388.74,0.26,3.0,10.7,138.11,27.87,24.63,36.37,1.01,-25.82,-26.87,-51,548,-925,19.5,30.4,1.7,19.9,2.0,-30.9,5.73,2.37,-30.1,26.4
2012-07-16 00:28:00,0.0,1.8817,0.0011,388.51,0.36,7.2,16.7,138.11,27.88,24.63,36.36,0.96,-26.08,-26.88,-52,548,-925,19.5,30.8,1.9,19.9,2.0,-31.0,5.73,2.37,-30.0,26.4
2012-07-16 00:29:00,0.0,1.8821,0.0010,387.80,0.36,2.9,10.3,138.11,27.89,24.62,36.38,1.07,-45.25,-44.73,-51,548,-926,19.6,31.9,2.4,19.9,2.0,-31.0,5.42,2.40,-33.9,26.4
2012-07-16 00:30:00,0.0,1.8824,0.0009,387.99,0.29,4.1,12.3,138.11,27.90,24.62,36.37,0.96,-26.56,-26.89,-52,548,-925,19.6,31.9,2.4,19.9,2.0,-31.0,5.73,2.35,-30.0,26.4
2012-07-16 00:31:00,0.0,1.8822,0.0009,387.59,0.42,4.5,10.4,138.11,27.91,24.63,36.37,1.01,-26.78,-26.90,-52,548,-925,19.6,32.4,2.6,19.9,2.0,-31.0,5.73,2.37,-30.0,26.4
2012-07-16 00:32:00,0.0,1.8820,0.0011,387.71,0.32,0.8,7.2,138.11,27.92,24.63,36.38,0.91,-26.71,-26.89,-52,549,-926,19.6,31.9,2.4,19.9,2.0,-31.0,5.73,2.37,-30.0,26.4
2012-07-16 00:33:00,0.0,1.8822,0.0010,388.28,0.32,4.2,11.7,138.11,27.93,24.63,36.37,1.03,-26.58,-26.91,-52,549,-926,19.6,31.3,2.1,19.9,2.0,-31.0,5.73,2.35,-30.0,26.4
2012-07-16 00:34:00,0.0,1.8825,0.0010,388.43,0.33,4.7,13.0,138.11,27.94,24.62,36.37,0.99,-26.73,-26.91,-52,549,-925,19.6,30.8,1.9,19.9,2.0,-31.0,5.73,2.36,-30.0,26.5
2012-07-16 00:35:00,0.0,1.8825,0.0010,388.31,0.25,4.1,11.6,138.10,27.95,24.63,36.37,0.88,-26.83,-26.92,-52,549,-926,19.6,31.1,2.0,19.9,2.0,-31.0,5.73,2.37,-30.0,26.5
2012-07-16 00:36:00,0.0,1.8824,0.0010,388.01,0.32,2.5,13.3,138.11,27.96,24.63,36.36,0.96,-26.57,-26.92,-52,549,-926,19.7,31.3,2.2,20.0,2.0,-31.0,5.73,2.37,-29.9,26.5
2012-07-16 00:37:00,0.0,1.8825,0.0010,388.42,0.24,6.6,13.3,138.11,27.97,24.63,36.37,0.99,-26.67,-26.93,-52,549,-925,19.6,30.6,1.9,20.0,2.0,-31.0,5.73,2.34,-29.9,26.5
2012-07-16 00:38:00,0.0,1.8829,0.0010,388.35,0.36,2.1,11.0,138.10,27.98,24.62,36.37,1.01,-26.86,-26.94,-52,549,-926,19.6,30.6,1.9,20.0,2.0,-31.0,5.73,2.36,-29.9,26.5
2012-07-16 00:39:00,0.0,1.8825,0.0008,387.87,0.43,7.2,14.5,138.10,27.99,24.63,36.37,0.95,-26.69,-26.94,-52,549,-926,19.7,31.4,2.3,20.0,2.0,-31.0,5.73,2.37,-29.8,26.5
2012-07-16 00:40:00,0.0,1.8826,0.0011,387.75,0.39,4.4,12.8,138.10,28.00,24.63,36.37,0.99,-26.63,-26.95,-52,549,-926,19.7,31.6,2.3,20.0,2.0,-31.1,5.73,2.36,-29.8,26.5
2012-07-16 00:41:00,0.0,1.8828,0.0011,387.90,0.34,8.4,19.9,138.10,28.01,24.63,36.37,0.94,-26.79,-26.96,-52,549,-925,19.7,31.4,2.3,20.0,1.9,-31.1,5.73,2.34,-29.8,26.6
2012-07-16 00:42:00,0.0,1.8825,0.0009,388.21,0.25,1.5,6.3,138.10,28.02,24.63,36.37,0.87,-26.85,-26.96,-52,549,-926,19.7,31.0,2.1,20.1,1.9,-31.1,5.73,2.36,-29.8,26.6
2012-07-16 00:43:00,0.0,1.8833,0.0011,387.99,0.34,10.2,17.2,138.10,28.03,24.63,36.38,0.99,-26.61,-26.97,-52,549,-926,19.7,31.0,2.1,20.1,1.9,-31.1,5.73,2.37,-29.8,26.6
2012-07-16 00:44:00,0.0,1.8834,0.0009,388.12,0.36,3.4,11.9,138.10,28.04,24.63,36.37,1.02,-26.74,-26.98,-52,549,-925,19.7,30.8,2.0,20.1,1.9,-31.1,5.73,2.35,-29.8,26.6
2012-07-16 00:45:00,0.0,1.8832,0.0011,388.01,0.32,6.0,12.7,138.10,28.05,24.63,36.38,1.00,-26.92,-26.92,-52,549,-926,19.7,31.0,2.1,20.1,2.0,-31.0,5.73,2.35,-29.8,26.6
2012-07-16 00:46:00,0.0,1.8834,0.0010,388.06,0.28,4.2,14.0,138.10,28.06,24.63,36.38,0.76,-27.12,-25.85,-52,549,-926,19.7,31.0,2.1,20.1,1.9,-31.1,5.73,2.38,-29.8,26.6
2012-07-16 00:47:00,0.0,1.8834,0.0009,387.86,0.35,10.1,20.8,138.10,28.07,24.63,36.38,0.86,-27.27,-23.98,-52,549,-926,19.8,31.1,2.2,20.1,2.1,-30.2,5.73,2.36,-29.8,26.6
2012-07-16 00:48:00,0.0,1.8835,0.0010,388.14,0.28,4.8,11.6,138.10,28.08,24.63,36.38,0.92,-27.34,-21.99,-52,549,-926,19.8,30.7,2.0,20.1,2.3,-29.3,5.73,2.34,-29.8,26.6
2012-07-16 00:49:00,0.0,1.8839,0.0008,388.25,0.30,7.7,18.0,138.10,28.10,24.62,36.37,0.94,-27.37,-20.06,-52,549,-926,19.8,30.6,2.0,20.1,2.4,-28.8,5.73,2.36,-29.7,26.6
2012-07-16 00:50:00,0.0,1.8839,0.0009,388.16,0.28,7.5,18.2,138.10,28.11,24.63,36.37,0.80,-27.38,-18.21,-52,549,-926,19.8,30.7,2.0,20.1,2.4,-28.6,5.73,2.38,-29.7,26.6
2012-07-16 00:51:00,0.0,1.8838,0.0009,388.37,0.26,10.7,17.8,138.10,28.11,24.63,36.37,0.82,-27.37,-16.46,-52,550,-925,19.8,30.6,2.0,20.1,2.4,-28.6,5.73,2.36,-29.7,26.6
2012-07-16 00:52:00,0.0,1.8839,0.0010,388.24,0.30,6.3,14.5,138.10,28.12,24.62,36.37,0.90,-27.36,-14.80,-52,549,-926,19.8,30.8,2.1,20.1,2.4,-28.8,5.73,2.34,-29.8,26.7
2012-07-16 00:53:00,0.0,1.8842,0.0009,387.93,0.32,4.7,12.2,138.10,28.13,24.63,36.37,0.95,-27.34,-13.22,-52,549,-926,19.8,31.2,2.2,20.1,2.4,-28.9,5.73,2.37,-29.7,26.7
2012-07-16 00:54:00,0.0,1.8834,0.0010,387.94,0.37,9.4,16.1,138.10,28.14,24.63,36.37,0.92,-27.32,-11.73,-52,550,-925,19.8,31.3,2.3,20.1,2.4,-29.0,5.73,2.38,-29.7,26.7
2012-07-16 00:55:00,0.0,1.8839,0.0011,387.73,0.27,6.3,15.8,138.10,28.15,24.63,36.37,0.80,-27.29,-10.31,-52,550,-925,19.8,31.5,2.4,20.1,2.3,-29.1,5.73,2.34,-29.7,26.7
2012-07-16 00:56:00,0.0,1.8841,0.0009,387.79,0.24,8.3,16.6,138.10,28.15,24.63,36.37,0.86,-27.27,-8.97,-52,550,-926,19.8,31.4,2.3,20.1,2.3,-29.2,5.73,2.35,-29.7,26.7
2012-07-16 00:57:00,0.0,1.8835,0.0010,387.48,0.24,7.4,17.9,138.10,28.16,24.63,36.36,0.90,-27.24,-7.70,-52,550,-926,19.8,31.8,2.5,20.2,2.3,-29.3,5.73,2.37,-29.7,26.7
2012-07-16 00:58:00,0.0,1.8839,0.0009,387.91,0.27,5.4,13.5,138.10,28.17,24.63,36.38,0.94,-27.22,-6.50,-52,549,-926,19.8,31.1,2.2,20.2,2.3,-29.4,5.73,2.36,-29.7,26.7
2012-07-16 00:59:00,0.0,1.8837,0.0010,387.93,0.30,6.1,14.5,138.10,28.18,24.63,36.37,0.94,-27.19,-5.35,-52,550,-926,19.8,31.1,2.2,20.2,2.2,-29.5,5.73,2.34,-29.7,26.7
2012-07-16 01:00:00,0.0,1.8844,0.0011,387.87,0.34,4.4,13.7,138.10,28.19,24.62,36.37,0.84,-27.17,-4.27,-52,550,-926,19.8,31.2,2.3,20.2,2.2,-29.5,5.73,2.36,-29.7,26.7
2012-07-16 01:01:00,0.0,1.8841,0.0010,387.73,0.32,7.1,16.3,138.10,28.20,24.63,36.37,0.82,-27.15,-3.24,-52,550,-926,19.8,31.5,2.4,20.2,2.2,-29.6,5.73,2.38,-29.7,26.7
2012-07-16 01:02:00,0.0,1.8837,0.0009,387.63,0.23,5.7,17.1,138.10,28.21,24.63,36.37,0.87,-27.12,-2.25,-52,550,-926,19.8,31.7,2.5,20.2,2.2,-29.6,5.73,2.35,-29.6,26.7
2012-07-16 01:03:00,0.0,1.8836,0.0011,387.41,0.29,8.8,19.2,138.10,28.21,24.63,36.37,0.91,-27.10,-1.32,-52,550,-926,19.8,32.4,2.8,20.2,2.2,-29.6,5.73,2.34,-29.6,26.7
2012-07-16 01:04:00,0.0,1.8829,0.0010,387.37,0.31,5.7,13.9,138.10,28.22,24.63,36.37,0.94,-27.08,-0.43,-52,550,-926,19.8,32.7,2.9,20.2,2.2,-29.6,5.73,2.38,-29.6,26.8
2012-07-16 01:05:00,0.0,1.8836,0.0010,387.67,0.37,2.4,11.6,138.10,28.23,24.63,36.37,0.94,-27.05,0.41,-52,550,-926,19.8,32.1,2.7,20.2,2.2,-29.7,5.73,2.37,-29.6,26.8
2012-07-16 01:06:00,0.0,1.8841,0.0009,387.77,0.30,3.3,10.1,138.10,28.24,24.63,36.37,0.87,-27.04,1.20,-52,550,-926,19.8,32.1,2.7,20.2,2.2,-29.7,5.73,2.35,-29.6,26.9
2012-07-16 01:07:00,0.0,1.8835,0.0008,387.79,0.31,7.2,16.1,138.10,28.24,24.63,36.37,0.81,-27.01,1.94,-52,550,-926,19.8,32.2,2.7,20.2,2.2,-29.7,5.73,2.37,-29.5,26.9
2012-07-16 01:08:00,0.0,1.8840,0.0010,387.38,0.34,10.2,20.8,138.10,28.25,24.63,36.37,0.86,-26.99,2.60,-52,550,-926,19.8,32.7,3.0,20.2,2.2,-29.9,5.73,2.40,-29.5,26.9
2012-07-16 01:09:00,0.0,1.8842,0.0011,387.85,0.27,6.7,14.3,138.10,28.26,24.63,36.37,0.90,-26.97,3.04,-52,550,-926,19.8,32.0,2.7,20.2,2.2,-29.8,5.73,2.38,-29.5,26.9
2012-07-16 01:10:00,0.0,1.8843,0.0010,387.90,0.28,6.5,14.0,138.10,28.26,24.63,36.36,0.93,-26.95,3.25,-52,550,-926,19.8,31.9,2.6,20.2,2.2,-29.8,5.73,2.37,-29.5,27.0
2012-07-16 01:11:00,0.0,1.8835,0.0012,388.07,0.27,9.7,17.5,138.10,28.27,24.63,36.36,0.95,-26.94,3.49,-52,550,-926,19.8,31.9,2.6,20.3,2.2,-29.9,5.73,2.39,-29.5,26.9
2012-07-16 01:12:00,0.0,1.8840,0.0010,387.87,0.36,5.9,16.7,138.10,28.28,24.63,36.37,0.94,-26.91,3.92,-52,550,-926,19.8,31.8,2.6,20.3,2.2,-29.8,5.73,2.40,-29.5,27.0
2012-07-16 01:13:00,0.0,1.8839,0.0010,387.88,0.28,5.8,15.1,138.10,28.29,24.63,36.37,0.86,-26.90,4.49,-52,550,-926,19.9,31.6,2.5,20.3,2.1,-29.9,5.73,2.37,-29.4,27.0
2012-07-16 01:14:00,0.0,1.8839,0.0010,387.77,0.28,7.1,13.1,138.10,28.29,24.63,36.36,0.83,-26.88,5.08,-52,550,-926,19.9,32.0,2.7,20.3,2.1,-30.0,5.73,2.38,-29.4,27.0
2012-07-16 01:15:00,0.0,1.8843,0.0009,387.76,0.31,6.9,14.2,138.10,28.30,24.62,36.37,0.89,-26.88,5.62,-52,550,-926,19.9,31.8,2.6,20.3,2.1,-30.0,5.73,2.40,-29.4,27.0
2012-07-16 01:16:00,0.0,1.8841,0.0010,387.99,0.29,14.1,21.0,138.10,28.31,24.63,36.36,0.90,-26.85,6.11,-52,550,-926,19.9,31.3,2.4,20.3,2.1,-30.0,5.73,2.38,-29.4,27.0
2012-07-16 01:17:00,0.0,1.8841,0.0009,387.93,0.30,13.1,22.2,138.10,28.32,24.63,36.36,0.92,-26.83,6.60,-52,550,-926,19.9,31.6,2.5,20.3,2.1,-30.0,5.73,2.37,-29.4,27.0
2012-07-16 01:18:00,0.0,1.8841,0.0009,387.62,0.26,5.9,10.8,138.10,28.33,24.63,36.37,0.94,-26.82,7.06,-52,550,-926,19.9,32.0,2.7,20.3,2.1,-30.0,5.73,2.39,-29.4,27.1
2012-07-16 01:19:00,0.0,1.8843,0.0010,387.63,0.27,11.9,17.3,138.10,28.33,24.63,36.37,0.95,-26.81,7.51,-52,551,-926,19.9,31.8,2.6,20.3,2.1,-30.0,5.73,2.40,-29.4,27.1
2012-07-16 01:20:00,0.0,1.8846,0.0008,387.43,0.39,6.6,15.0,138.10,28.34,24.63,36.37,0.93,-26.79,7.94,-52,550,-926,19.9,32.2,2.8,20.3,2.1,-29.9,5.73,2.37,-29.3,27.1
2012-07-16 01:21:00,0.0,1.8848,0.0008,387.61,0.32,8.9,19.4,138.10,28.35,24.63,36.37,0.87,-26.78,8.34,-52,550,-926,19.9,31.7,2.6,20.3,2.1,-29.9,5.73,2.37,-29.3,27.1
2012-07-16 01:22:00,0.0,1.8844,0.0010,387.72,0.29,11.9,21.0,138.10,28.35,24.63,36.37,0.86,-26.77,8.73,-52,550,-926,19.9,31.1,2.3,20.3,2.1,-29.9,5.73,2.40,-29.3,27.1
2012-07-16 01:23:00,0.0,1.8849,0.0011,387.86,0.27,9.7,17.2,138.10,28.36,24.63,36.37,0.87,-26.76,9.11,-52,551,-926,19.9,31.2,2.4,20.4,2.1,-29.9,5.73,2.38,-29.3,27.1
2012-07-16 01:24:00,0.0,1.8844,0.0010,387.75,0.35,12.3,20.1,138.10,28.37,24.63,36.37,0.90,-26.74,9.47,-52,551,-926,20.0,30.9,2.3,20.4,2.1,-29.9,5.73,2.36,-29.3,27.2
2012-07-16 01:25:00,0.0,1.8845,0.0009,387.89,0.33,6.9,16.7,138.10,28.38,24.63,36.37,0.92,-26.73,9.82,-52,551,-926,20.0,30.9,2.3,20.4,2.1,-29.9,5.73,2.39,-29.3,27.2
2012-07-16 01:26:00,0.0,1.8846,0.0014,387.61,0.32,10.9,18.9,138.10,28.38,24.63,36.37,0.94,-26.72,10.16,-52,551,-926,20.0,31.4,2.5,20.4,2.1,-29.9,5.73,2.39,-29.3,27.1
2012-07-16 01:27:00,0.0,1.8848,0.0009,387.77,0.29,14.4,19.4,138.10,28.39,24.63,36.37,0.95,-26.71,10.50,-52,551,-926,20.0,31.0,2.3,20.4,2.1,-29.8,5.73,2.36,-29.2,27.2
2012-07-16 01:28:00,0.0,1.8845,0.0011,387.59,0.28,10.0,17.1,138.10,28.40,24.63,36.37,0.95,-26.70,10.81,-52,551,-926,20.0,31.3,2.5,20.4,2.1,-29.9,5.73,2.37,-29.2,27.2
2012-07-16 01:29:00,0.0,1.8843,0.0010,387.59,0.29,14.5,21.4,138.10,28.41,24.63,36.37,0.92,-26.69,11.13,-52,551,-926,20.0,31.4,2.5,20.4,2.1,-29.9,5.73,2.40,-29.2,27.2
2012-07-16 01:30:00,0.0,1.8840,0.0010,387.38,0.33,10.2,18.7,138.10,28.41,24.63,36.37,0.87,-26.68,11.43,-52,551,-926,20.0,31.6,2.6,20.4,2.1,-29.9,5.73,2.37,-29.2,27.2
2012-07-16 01:31:00,0.0,1.8840,0.0010,387.70,0.25,13.1,18.6,138.10,28.42,24.63,36.37,0.86,-26.67,11.73,-52,551,-926,20.0,30.9,2.3,20.5,2.1,-29.9,5.73,2.36,-29.2,27.2
2012-07-16 01:32:00,0.0,1.8837,0.0009,387.69,0.43,11.8,21.8,138.10,28.43,24.63,36.36,0.86,-26.66,12.02,-52,551,-926,20.0,31.4,2.6,20.5,2.1,-29.8,5.73,2.39,-29.1,27.2
2012-07-16 01:33:00,0.0,1.8841,0.0009,387.02,0.28,14.5,21.9,138.10,28.44,24.63,36.37,0.89,-26.65,12.32,-52,551,-926,20.1,32.6,3.1,20.5,2.1,-29.8,5.73,2.39,-29.0,27.3
2012-07-16 01:34:00,0.0,1.8846,0.0010,387.46,0.35,8.1,15.0,138.10,28.45,24.63,36.37,0.91,-26.65,12.59,-52,551,-926,20.1,31.4,2.6,20.5,2.1,-29.8,5.73,2.35,-29.1,27.3
2012-07-16 01:35:00,0.0,1.8844,0.0008,387.73,0.25,12.7,18.0,138.10,28.46,24.63,36.37,0.92,-26.64,12.85,-52,551,-926,20.1,31.1,2.5,20.5,2.1,-29.8,5.73,2.38,-29.1,27.2
2012-07-16 01:36:00,0.0,1.8846,0.0009,387.39,0.34,14.3,20.6,138.10,28.46,24.63,36.36,0.93,-26.63,13.10,-52,551,-926,20.1,31.7,2.7,20.5,2.1,-29.8,5.73,2.39,-29.2,27.3
2012-07-16 01:37:00,0.0,1.8847,0.0012,387.80,0.26,17.1,20.3,138.10,28.47,24.63,36.37,0.94,-26.62,13.34,-52,551,-926,20.1,31.0,2.4,20.5,2.1,-29.8,5.73,2.36,-29.1,27.3
2012-07-16 01:38:00,0.0,1.8845,0.0009,387.72,0.30,13.3,20.3,138.10,28.48,24.63,36.36,0.94,-26.61,13.57,-52,551,-926,20.1,31.4,2.6,20.5,2.1,-29.8,5.73,2.37,-29.1,27.3
2012-07-16 01:39:00,0.0,1.8847,0.0011,387.41,0.25,14.0,20.9,138.10,28.49,24.63,36.36,0.91,-26.61,13.79,-52,551,-926,20.1,32.1,3.0,20.5,2.1,-29.8,5.73,2.40,-29.1,27.3
2012-07-16 01:40:00,0.0,1.8843,0.0012,387.45,0.34,14.6,21.1,138.10,28.50,24.63,36.37,0.87,-26.59,14.01,-52,551,-926,20.1,31.4,2.7,20.5,2.1,-29.8,5.73,2.36,-29.1,27.3
2012-07-16 01:41:00,0.0,1.8847,0.0009,387.72,0.26,14.5,21.2,138.10,28.50,24.63,36.36,0.87,-26.59,14.21,-52,551,-926,20.2,30.9,2.4,20.6,2.1,-29.8,5.73,2.36,-29.1,27.3
2012-07-16 01:42:00,0.0,1.8846,0.0009,387.66,0.29,23.0,26.2,138.10,28.52,24.63,36.37,0.88,-26.58,14.40,-52,551,-926,20.2,30.7,2.3,20.6,2.1,-29.8,5.73,2.39,-29.1,27.3
2012-07-16 01:43:00,0.0,1.8849,0.0010,387.70,0.28,20.4,24.3,138.10,28.52,24.63,36.37,0.90,-26.57,14.59,-52,551,-926,20.2,30.6,2.3,20.6,2.1,-29.8,5.73,2.38,-29.0,27.3
2012-07-16 01:44:00,0.0,1.8849,0.0011,387.57,0.25,18.0,24.6,138.10,28.53,24.63,36.36,0.92,-26.57,14.76,-52,552,-926,20.2,30.8,2.4,20.6,2.1,-29.8,5.73,2.36,-29.0,27.4
2012-07-16 01:45:00,0.0,1.8847,0.0008,387.57,0.25,16.7,21.3,138.10,28.54,24.63,36.37,0.92,-26.57,14.93,-52,552,-926,20.2,30.6,2.4,20.6,2.1,-29.8,5.73,2.39,-29.0,27.4
2012-07-16 01:46:00,0.0,1.8842,0.0009,387.41,0.30,15.9,24.4,138.10,28.55,24.64,36.38,0.93,-26.55,15.09,-52,552,-926,20.2,30.7,2.4,20.6,2.1,-29.8,5.73,2.38,-29.0,27.3
2012-07-16 01:47:00,0.0,1.8842,0.0010,387.30,0.28,18.9,24.3,138.10,28.55,24.64,36.37,0.94,-26.55,15.25,-52,552,-926,20.2,31.0,2.6,20.6,2.1,-29.7,5.73,2.35,-29.0,27.3
2012-07-16 01:48:00,0.0,1.8848,0.0009,387.20,0.30,16.7,26.8,138.10,28.56,24.63,36.36,0.95,-26.55,15.39,-52,552,-927,20.3,31.5,2.8,20.6,2.1,-29.7,5.73,2.38,-29.0,27.4
2012-07-16 01:49:00,0.0,1.8851,0.0009,387.33,0.29,17.1,23.8,138.10,28.57,24.63,36.37,0.94,-26.54,15.53,-52,552,-926,20.3,31.1,2.6,20.6,2.1,-29.8,5.73,2.39,-29.0,27.4
2012-07-16 01:50:00,0.0,1.8848,0.0009,387.37,0.29,17.2,22.3,138.10,28.58,24.64,36.37,0.92,-26.53,15.67,-52,552,-926,20.2,31.0,2.5,20.7,2.1,-29.8,5.73,2.35,-29.0,27.4
2012-07-16 01:51:00,0.0,1.8854,0.0008,387.04,0.25,20.4,24.5,138.10,28.58,24.63,36.37,0.89,-26.53,15.80,-52,552,-926,20.3,31.5,2.8,20.7,2.1,-29.8,5.73,2.37,-29.0,27.4
2012-07-16 01:52:00,0.0,1.8848,0.0011,386.88,0.26,22.1,25.3,138.10,28.59,24.63,36.37,0.88,-26.53,15.92,-52,552,-926,20.3,31.6,2.8,20.7,2.1,-29.9,5.73,2.39,-29.0,27.4
2012-07-16 01:53:00,0.0,1.8850,0.0012,387.03,0.26,20.3,23.9,138.10,28.60,24.63,36.36,0.87,-26.52,16.04,-52,552,-927,20.3,31.4,2.8,20.7,2.1,-29.9,5.73,2.36,-29.0,27.4
2012-07-16 01:54:00,0.0,1.8853,0.0011,387.26,0.34,22.3,25.2,138.10,28.61,24.63,36.36,0.90,-26.51,16.15,-52,552,-927,20.3,31.1,2.7,20.7,2.1,-29.8,5.73,2.36,-29.0,27.4
2012-07-16 01:55:00,0.0,1.8849,0.0011,387.29,0.30,20.1,26.9,138.10,28.62,24.63,36.36,0.91,-26.51,16.26,-52,552,-927,20.3,31.1,2.7,20.7,2.1,-29.9,5.73,2.39,-28.9,27.5
2012-07-16 01:56:00,0.0,1.8855,0.0009,387.14,0.28,21.4,23.7,138.10,28.63,24.63,36.36,0.91,-26.50,16.37,-52,552,-926,20.3,31.3,2.7,20.7,2.1,-29.8,5.73,2.37,-28.9,27.5
2012-07-16 01:57:00,0.0,1.8856,0.0011,387.16,0.27,15.9,21.9,138.10,28.63,24.63,36.37,0.93,-26.50,16.46,-52,552,-927,20.3,31.2,2.7,20.7,2.1,-29.8,5.73,2.35,-28.9,27.4
2012-07-16 01:58:00,0.0,1.8860,0.0011,386.88,0.24,17.6,27.6,138.10,28.64,24.63,36.36,0.93,-26.50,16.56,-52,552,-926,20.3,31.7,2.9,20.7,2.1,-29.9,5.73,2.39,-28.9,27.4
2012-07-16 01:59:00,0.0,1.8855,0.0009,386.98,0.34,20.7,22.5,138.09,28.65,24.63,36.36,0.94,-26.49,16.65,-52,552,-927,20.3,31.4,2.8,20.7,2.1,-29.8,5.73,2.37,-28.9,27.5
2012-07-16 02:00:00,0.0,1.8857,0.0011,386.89,0.29,16.6,23.4,138.10,28.66,24.63,36.36,0.94,-26.48,16.74,-52,552,-927,20.3,31.5,2.9,20.7,2.1,-29.8,5.73,2.35,-28.9,27.5
2012-07-16 02:01:00,0.0,1.8855,0.0014,386.91,0.31,23.5,27.4,138.09,28.67,24.64,36.37,0.93,-26.48,16.82,-52,552,-927,20.4,31.3,2.8,20.7,2.1,-29.8,5.73,2.39,-28.9,27.4
2012-07-16 02:02:00,0.0,1.8859,0.0011,386.80,0.33,23.4,26.4,138.09,28.67,24.63,36.37,0.92,-26.48,16.90,-52,552,-927,20.3,31.7,3.0,20.7,2.1,-29.8,5.73,2.38,-28.9,27.5
2012-07-16 02:03:00,0.0,1.8857,0.0010,386.89,0.37,21.9,29.8,138.10,28.68,24.63,36.36,0.91,-26.47,16.98,-52,552,-927,20.4,31.4,2.9,20.7,2.1,-29.8,5.73,2.35,-28.9,27.5
2012-07-16 02:04:00,0.0,1.8852,0.0010,387.02,0.23,21.8,23.4,138.09,28.69,24.63,36.37,0.88,-26.47,17.05,-52,552,-926,20.4,30.8,2.6,20.8,2.1,-29.8,5.73,2.38,-28.9,27.5
2012-07-16 02:05:00,0.0,1.8851,0.0010,387.33,0.32,26.7,26.1,138.09,28.70,24.63,36.37,0.88,-26.47,17.12,-52,552,-927,20.4,30.4,2.4,20.7,2.1,-29.8,5.73,2.38,-28.9,27.5
2012-07-16 02:06:00,0.0,1.8855,0.0009,387.23,0.37,18.3,24.0,138.10,28.71,24.63,36.36,0.90,-26.46,17.18,-53,552,-928,20.4,30.6,2.5,20.8,2.1,-29.8,5.73,2.35,-28.8,27.5
2012-07-16 02:07:00,0.0,1.8851,0.0009,387.34,0.27,18.1,23.3,138.09,28.71,24.63,36.36,0.89,-26.46,17.25,-52,552,-927,20.4,30.4,2.4,20.8,2.1,-29.8,5.73,2.38,-28.8,27.5
2012-07-16 02:08:00,0.0,1.8852,0.0012,387.25,0.23,13.8,20.6,138.09,28.72,24.63,36.37,0.91,-26.45,17.31,-52,553,-927,20.4,30.5,2.4,20.8,2.1,-29.8,5.73,2.38,-28.8,27.6
2012-07-16 02:09:00,0.0,1.8855,0.0009,387.08,0.29,19.7,20.6,138.09,28.73,24.63,36.36,0.92,-26.45,17.37,-52,555,-926,20.4,30.6,2.5,20.8,2.1,-29.8,5.73,2.35,-28.8,27.5
2012-07-16 02:10:00,0.0,1.8852,0.0009,387.08,0.37,20.0,23.6,138.09,28.73,24.63,36.36,0.93,-26.45,17.43,-53,552,-927,20.4,30.8,2.6,20.8,2.1,-29.8,5.73,2.37,-28.8,27.5
2012-07-16 02:11:00,0.0,1.8850,0.0010,386.63,0.35,15.7,19.8,138.09,28.74,24.63,36.36,0.94,-26.44,17.48,-53,552,-927,20.4,31.3,2.8,20.8,2.1,-29.8,5.73,2.39,-28.8,27.5
2012-07-16 02:12:00,0.0,1.8858,0.0009,386.79,0.37,14.6,18.9,138.09,28.75,24.63,36.36,0.94,-26.44,17.53,-52,553,-927,20.4,31.0,2.7,20.8,2.1,-29.8,5.73,2.35,-28.8,27.6
2012-07-16 02:13:00,0.0,1.8857,0.0010,386.76,0.28,18.7,22.6,138.09,28.76,24.63,36.36,0.94,-26.44,17.58,-52,552,-927,20.4,31.2,2.8,20.8,2.1,-29.8,5.73,2.37,-28.8,27.6
2012-07-16 02:14:00,0.0,1.8856,0.0010,386.83,0.27,24.0,25.7,138.09,28.77,24.63,36.36,0.92,-26.43,17.63,-53,553,-927,20.4,31.0,2.7,20.8,2.1,-29.8,5.73,2.39,-28.8,27.5
2012-07-16 02:15:00,0.0,1.8851,0.0011,386.80,0.26,15.3,21.6,138.09,28.77,24.64,36.36,0.92,-26.44,17.67,-53,552,-926,20.4,31.0,2.7,20.8,2.1,-29.8,5.73,2.35,-28.8,27.5
2012-07-16 02:16:00,0.0,1.8855,0.0009,386.86,0.29,17.1,21.0,138.09,28.78,24.63,36.37,0.88,-26.43,17.72,-52,553,-927,20.4,30.8,2.6,20.8,2.1,-29.9,5.73,2.36,-28.8,27.6
2012-07-16 02:17:00,0.0,1.8862,0.0010,387.00,0.35,14.1,22.6,138.09,28.79,24.63,36.36,0.88,-26.43,17.76,-53,553,-927,20.4,30.5,2.5,20.9,2.1,-29.9,5.73,2.39,-28.8,27.6
2012-07-16 02:18:00,0.0,1.8856,0.0010,386.60,0.27,14.6,21.8,138.09,28.80,24.63,36.37,0.89,-26.43,17.80,-53,552,-927,20.4,31.1,2.8,20.9,2.1,-29.9,5.73,2.35,-28.8,27.6
2012-07-16 02:19:00,0.0,1.8857,0.0010,386.35,0.31,13.0,22.4,138.09,28.81,24.63,36.37,0.91,-26.42,17.84,-52,552,-927,20.5,31.2,2.8,20.9,2.1,-29.9,5.73,2.36,-28.8,27.6
2012-07-16 02:20:00,0.0,1.8860,0.0009,386.99,0.32,13.7,21.0,138.09,28.82,24.63,36.36,0.91,-26.42,17.88,-53,553,-927,20.4,30.3,2.4,20.9,2.1,-29.9,5.73,2.39,-28.8,27.6
2012-07-16 02:21:00,0.0,1.8861,0.0010,387.06,0.30,18.6,21.2,138.09,28.82,24.63,36.36,0.91,-26.42,17.91,-52,553,-927,20.5,30.3,2.4,20.9,2.1,-29.9,5.73,2.35,-28.8,27.6